Regional Weather Roundup
Issued by NWS Charleston, SC

Home | Current Version | Previous Version | Text Only | Print | Product List | Glossary On
Versions: 1 2 3 4 5 6 7 8 9 10 11 12 13 14 15 16 17 18 19 20 21 22 23 24 25 26 27 28 29 30 31 32 33 34 35 36 37 38 39 40 41 42 43 44 45 46 47 48 49 50
000
ASUS42 KCHS 010427
RWRCHS

REGIONAL WEATHER ROUNDUP
NATIONAL WEATHER SERVICE CHARLESTON SC
1200 AM EDT TUE SEP 01 2015

NOTE: "FAIR" INDICATES FEW OR NO CLOUDS BELOW 12,000 FEET WITH NO
SIGNIFICANT WEATHER AND/OR OBSTRUCTIONS TO VISIBILITY.

NOT ALL STATIONS ARE QUALITY CONTROLLED BY THE NATIONAL
WEATHER SERVICE. USE DATA WITH CAUTION...ESPECIALLY
DEWPOINT OBSERVATIONS.

SCZ027-030-031-034>040-042>050-010500-
...SOUTHEAST SOUTH CAROLINA...

CITY           SKY/WX    TMP DP  RH WIND       PRES   REMARKS
N CHARLESTON   PTCLDY    75  72  90 CALM      30.09S
WATERFRONT PRK   N/A     79  74  85 VRB2      30.06S
MOUNT PLEASANT LGT RAIN  75  73  94 CALM      30.09S
JOHNS ISLAND   FAIR      75  73  94 CALM      30.09F
PINOPOLIS        N/A     81  73  78 VRB2      30.02S
MONCKS CORNER  FAIR      73  72  94 CALM      30.09S
SUMMERVILLE    FAIR      72  72 100 CALM      30.10S
BEAUFORT MCAS  CLEAR     75  73  93 CALM      30.09S
BEAUFORT ARPT  FAIR      73  73 100 CALM      30.09S
HILTON HEAD IS CLEAR     75  75 100 CALM      30.10F
WALTERBORO     CLEAR     72  70  94 CALM      30.10F
ALLENDALE      FAIR      72  70  94 CALM      30.09S

...SOUTHERN MIDLANDS AND PEE DEE...

CITY           SKY/WX    TMP DP  RH WIND       PRES   REMARKS
GEORGETOWN     NOT AVBL
KINGSTREE      NOT AVBL
ORANGEBURG     PTCLDY    73  70  90 CALM      30.11R
BARNWELL       FAIR      72  72 100 CALM      30.10F
AIKEN          FAIR      70  66  88 CALM      30.14S
MANNING        FAIR      70  70 100 CALM      30.10R
COLUMBIA       PTCLDY    75  69  81 SW3       30.09S
SUMTER         CLEAR     73  71  91 S5        30.08R
FLORENCE       CLEAR     71  69  93 SW3       30.09R
MYRTLE BEACH   CLOUDY    75  72  88 CALM      30.09S VSB 1/2
N MYRTLE BEACH FOG       74  72  93 CALM      30.07S VSB 1/2

$$

GAZ063-065-086>088-099>101-113>116-118-119-134>141-150-010500-
...SOUTHEAST GEORGIA...

CITY           SKY/WX    TMP DP  RH WIND       PRES   REMARKS
SAVANNAH ARPT  PTCLDY    74  72  93 CALM      30.10S
HUNTER AAF     PTCLDY    75  75 100 CALM      30.07S
FORT STEWART   CLEAR     74  72  93 CALM      30.07F
STATESBORO     CLEAR     69  32  25 CALM      30.10S
SYLVANIA       CLEAR     71  71 100 CALM      30.11S FOG
CLAXTON        NOT AVBL

...CSRA...CENTRAL AND FAR SOUTHEAST GEORGIA...

CITY           SKY/WX    TMP DP  RH WIND       PRES   REMARKS
THOMSON        CLEAR     71  71 100 CALM      30.16S
AUGUSTA-BUSH   CLEAR     69  69 100 CALM      30.09S FOG
AUGUSTA-DANIEL CLEAR     79  68  69 CALM      30.11S
SWAINSBORO     FAIR     N/A N/A N/A CALM      30.11S
VIDALIA        CLEAR     72  70  94 CALM      30.11S
EASTMAN        FOG       71  71 100 CALM      30.13R VSB 1
HAZLEHURST     FAIR      76  72  88 SE3       30.10R
ALMA           CLEAR     73  72  96 E3        30.09S
WAYCROSS       PTCLDY    79  78  98 CALM      30.09S
JESUP          MOCLDY    79  77  94 CALM      30.09F
BAXLEY         FAIR      73  72  94 CALM      30.09S
BRUNSWICK      MOCLDY    75  73  94 CALM      30.10S
SAINT SIMONS   MOCLDY    81  76  84 CALM      30.08S

$$

SCZ027-028-034-036>038-045-046-048>050-GAZ119-141-010500-
...LAKE AND SUPPLEMENTAL COASTAL OBSERVATIONS...

STATION/POSITION TIME  TEMP    WIND        PRES    WAVE   SWELL
                       AIR SEA DIR/SP/G            HT/PER HT/PER/DIR
                 (UTC) (F)     (DEG/KT/KT) (MB)    (FT/S) (FT/S/D)
UPR LAKE MARION  NOT AVBL
WINYAH BAY       0300   75     320/  2     1018.0R
LAKE MURRAY      0300   78     270/  1/  4 1018.3R
ACE BASIN NERRS  NOT AVBL
FORT PULASKI     0400   80 83   10/  1/  2   N/A
SAPELO ISLAND    0400   79     120/  2     1019.0S

$$

ANZ835-935-AMZ111-154-330-350-352-354-370-450-454-472-010500-
...C-MAN AND BUOY OBSERVATIONS...

STATION/POSITION TIME  TEMP    WIND        PRES    WAVE   SWELL
                       AIR SEA DIR/SP/G            HT/PER HT/PER/DIR
                 (UTC) (F)     (DEG/KT/KT) (MB)    (FT/S) (FT/S/D)
BUOY 41004       0350   81 83  240/  6/  8 1018.4R   3/ 6   3/ 6
BUOY 41008       0350   82 84  170/  6/  6 1019.2R   2/ 9   2/110/ 9
FOLLY BEACH CMAN 0400   78     310/  2/  3 1019.0R
CAPERS NEARSHORE 0308   82     360/  6/  8 1018.7R
FRIPP NEARSHORE  0300   81     360/  4/  4 1018.6R


STATION/POSITION TIME  TEMP    WIND        PRES    WAVE   SWELL
                       AIR SEA DIR/SP/G            HT/PER HT/PER/DIR
                 (UTC) (F)     (DEG/KT/KT) (MB)    (FT/S) (FT/S/D)
5E ST. MARYS GA  0321      85                N/A     3/11   2/100/11
FRYING PAN BUOY  0350   80 81  280/ 10/ 12 1018.0S   4/ 7   3/170/ 7
BUOY 41025       0350   81 83  180/ 12/ 14 1018.0F   4/ 8   3/140/ 8
CAPE LOOKOUT NC  0400   78     210/  8/ 11 1017.3S
BUOY 41002       0350   84 84  210/ 12/ 14 1019.4F   4/ 7   3/180/ 7
BUOY 41010       0320   85 85  150/  8/ 12 1018.9F
ST AUGUSTINE FL  0400   82 85  160/ 15/ 17 1019.0S


$$


USA.gov is the U.S. government's official web portal to all federal, state and local government web resources and services.